TimeCDT,TemperatureF,Dew PointF,Humidity,Sea Level PressureIn,VisibilityMPH,Wind Direction,Wind SpeedMPH,Gust SpeedMPH,PrecipitationIn,Events,Conditions,WindDirDegrees,DateUTC
12:53 AM,82.0,73.9,76,30.10,10.0,South,8.1,-,N/A,,Clear,180,2013-07-18 05:53:00
1:53 AM,81.0,75.0,82,30.09,10.0,South,8.1,-,N/A,,Clear,170,2013-07-18 06:53:00
2:53 AM,81.0,73.0,77,30.08,10.0,SSE,9.2,-,N/A,,Clear,160,2013-07-18 07:53:00
3:53 AM,80.1,72.0,76,30.07,10.0,SSE,8.1,-,N/A,,Partly Cloudy,160,2013-07-18 08:53:00
4:53 AM,80.1,71.1,74,30.06,10.0,South,8.1,-,N/A,,Clear,170,2013-07-18 09:53:00
5:53 AM,79.0,70.0,74,30.05,10.0,South,5.8,-,N/A,,Clear,180,2013-07-18 10:53:00
6:53 AM,80.1,70.0,71,30.05,10.0,Variable,3.5,-,N/A,,Clear,0,2013-07-18 11:53:00
7:53 AM,82.0,70.0,67,30.05,10.0,SE,3.5,-,N/A,,Clear,140,2013-07-18 12:53:00
8:53 AM,84.9,70.0,61,30.04,10.0,South,3.5,-,N/A,,Clear,180,2013-07-18 13:53:00
9:53 AM,89.1,71.1,55,30.02,10.0,SSW,11.5,-,N/A,,Clear,210,2013-07-18 14:53:00
10:53 AM,91.9,70.0,48,30.00,10.0,WSW,10.4,-,N/A,,Clear,240,2013-07-18 15:53:00
11:53 AM,93.9,69.1,44,29.99,10.0,SW,12.7,-,0.00,,Clear,220,2013-07-18 16:53:00
12:53 PM,96.1,69.1,41,29.97,10.0,SSW,12.7,-,N/A,,Partly Cloudy,200,2013-07-18 17:53:00
1:53 PM,98.1,66.9,36,29.94,10.0,SSW,18.4,25.3,N/A,,Partly Cloudy,210,2013-07-18 18:53:00
2:53 PM,95.0,66.9,40,29.92,10.0,SW,11.5,21.9,N/A,,Scattered Clouds,230,2013-07-18 19:53:00
3:53 PM,97.0,66.9,37,29.89,10.0,SSW,19.6,28.8,N/A,,Partly Cloudy,210,2013-07-18 20:53:00
4:53 PM,97.0,66.9,37,29.87,10.0,SSW,18.4,26.5,N/A,,Partly Cloudy,210,2013-07-18 21:53:00
5:53 PM,95.0,66.9,40,29.86,10.0,SSW,18.4,26.5,N/A,,Clear,210,2013-07-18 22:53:00
6:53 PM,93.9,66.9,41,29.83,10.0,SSW,11.5,-,N/A,,Clear,210,2013-07-18 23:53:00
7:53 PM,90.0,68.0,48,29.81,10.0,SSW,12.7,-,N/A,,Clear,200,2013-07-19 00:53:00
8:53 PM,88.0,66.9,49,29.81,10.0,SSW,10.4,-,N/A,,Clear,200,2013-07-19 01:53:00
9:53 PM,86.0,66.9,53,29.81,10.0,SSW,13.8,-,N/A,,Clear,200,2013-07-19 02:53:00
10:53 PM,84.9,66.9,55,29.81,10.0,SSW,11.5,-,N/A,,Clear,210,2013-07-19 03:53:00
11:53 PM,82.9,66.9,58,29.80,10.0,SSW,8.1,-,N/A,,Clear,200,2013-07-19 04:53:00